Regional Weather Roundup
Issued by NWS

Home | Current Version | Previous Version | Text Only | Print | Product List | Glossary Off
Versions: 1 2 3 4 5 6 7 8 9 10 11 12 13 14 15 16 17 18 19 20 21 22 23 24 25 26 27 28 29 30 31 32 33 34 35 36 37 38 39 40 41 42 43 44 45 46 47 48 49 50

000
ASUS43 KBIS 071602
RWRND

NORTH DAKOTA REGIONAL WEATHER ROUNDUP
NATIONAL WEATHER SERVICE BISMARCK ND
1000 AM CST SUN FEB 07 2016

NOTE: "FAIR" INDICATES FEW OR NO CLOUDS BELOW 12,000 FEET WITH NO
SIGNIFICANT WEATHER AND/OR OBSTRUCTIONS TO VISIBILITY.


NDZ001>003-009>011-017-071700-
NORTHWEST NORTH DAKOTA

CITY           SKY/WX    TMP DP  RH WIND       PRES   REMARKS
WILLISTON      PTSUNNY   31  20  63 NW30G49   30.06R WCI  16
MINOT          FLURRIES  29  16  58 NW29G43   29.86R WCI  14
MINOT AFB      MIX PCPN  26  18  69 NW29G41   29.85R WCI  10
$$

NDZ018>021-031>035-040>046-071700-
SOUTHWEST NORTH DAKOTA

CITY           SKY/WX    TMP DP  RH WIND       PRES   REMARKS
BISMARCK       CLOUDY    34  21  59 NW32G60   29.85R WCI  20
DICKINSON      LGT SNOW  28  21  75 NW32G41   29.98R WCI  12
GARRISON         N/A     27  18  69 NW39G58   29.86R WCI   9
HETTINGER ARPT CLOUDY    31  20  63 NW40G56   30.01R WCI  14
$$

NDZ004>008-012>016-024-026-027-054-071700-
NORTHEAST NORTH DAKOTA

CITY           SKY/WX    TMP DP  RH WIND       PRES   REMARKS
GRAND FORKS    LGT SNOW  32  28  85 N21       29.60R VSB 3/4 WCI  20
GRND FRKS AFB  LGT SNOW  32  30  93 N18G26    29.60R FOG
DEVILS LAKE    FLURRIES  30  24  78 NW30G41   29.67R WCI  15
$$

NDZ022-023-025-028>030-036>039-047>053-071700-
SOUTHEAST NORTH DAKOTA

CITY           SKY/WX    TMP DP  RH WIND       PRES   REMARKS
FARGO          LGT SNOW  36  30  79 W22       29.61R
JAMESTOWN      CLOUDY    33  27  78 NW29G38   29.69R WCI  19
$$




USA.gov is the U.S. government's official web portal to all federal, state and local government web resources and services.